Time,TemperatureF,DewpointF,PressureIn,WindDirection,WindDirectionDegrees,WindSpeedMPH,WindSpeedGustMPH,Humidity,HourlyPrecipIn,Conditions,Clouds,dailyrainin,SoftwareType,DateUTC
2013-08-03 00:00:00,60.9,28.9,30.07,NNW,338,0.0,0.0,30,0.00,,---,0.00,VWS V14.00,2013-08-03 07:00:00,
2013-08-03 00:10:00,60.9,28.9,30.08,NNW,337,0.0,0.0,30,0.00,,---,0.00,VWS V14.00,2013-08-03 07:10:00,
2013-08-03 00:15:00,60.9,28.9,30.08,NNW,338,0.0,0.0,30,0.00,,---,0.00,VWS V14.00,2013-08-03 07:15:00,
2013-08-03 00:20:00,60.9,28.9,30.08,NNW,339,0.0,0.0,30,0.00,,---,0.00,VWS V14.00,2013-08-03 07:20:00,
2013-08-03 00:25:00,60.7,28.7,30.08,NNW,339,0.0,0.0,30,0.00,,---,0.00,VWS V14.00,2013-08-03 07:25:00,
2013-08-03 00:30:00,60.4,28.4,30.08,NNW,338,0.0,0.0,30,0.00,,---,0.00,VWS V14.00,2013-08-03 07:30:00,
2013-08-03 00:35:00,60.3,28.4,30.08,NNW,342,0.0,0.0,30,0.00,,---,0.00,VWS V14.00,2013-08-03 07:35:00,
2013-08-03 00:40:00,60.3,28.4,30.08,NNW,343,0.0,0.0,30,0.00,,---,0.00,VWS V14.00,2013-08-03 07:40:00,
2013-08-03 00:45:00,59.8,27.9,30.08,NNW,342,0.0,0.0,30,0.00,,---,0.00,VWS V14.00,2013-08-03 07:45:00,
2013-08-03 00:55:00,59.0,28.0,30.08,NNW,343,0.0,0.0,30,0.00,,---,0.00,VWS V14.00,2013-08-03 07:55:00,
2013-08-03 01:00:00,59.0,28.8,30.08,NNW,343,0.0,0.0,32,0.00,,---,0.00,VWS V14.00,2013-08-03 08:00:00,
2013-08-03 01:05:00,59.2,29.0,30.08,NNW,343,0.0,0.0,32,0.00,,---,0.00,VWS V14.00,2013-08-03 08:05:00,
2013-08-03 01:10:00,59.4,28.4,30.08,NNW,343,0.0,0.0,30,0.00,,---,0.00,VWS V14.00,2013-08-03 08:10:00,
2013-08-03 01:15:00,60.1,29.0,30.08,NNW,343,0.0,0.0,30,0.00,,---,0.00,VWS V14.00,2013-08-03 08:15:00,
2013-08-03 01:20:00,60.6,29.4,30.08,NNW,343,0.0,0.0,30,0.00,,---,0.00,VWS V14.00,2013-08-03 08:20:00,
2013-08-03 01:25:00,60.7,29.5,30.08,NNW,342,0.0,0.0,30,0.00,,---,0.00,VWS V14.00,2013-08-03 08:25:00,
2013-08-03 01:30:00,61.3,30.0,30.08,NNW,343,0.0,0.0,30,0.00,,---,0.00,VWS V14.00,2013-08-03 08:30:00,
2013-08-03 01:40:00,62.0,29.8,30.08,NNW,342,0.0,0.0,30,0.00,,---,0.00,VWS V14.00,2013-08-03 08:40:00,
2013-08-03 01:45:00,62.6,30.3,30.08,NNW,343,0.0,0.0,30,0.00,,---,0.00,VWS V14.00,2013-08-03 08:45:00,
2013-08-03 01:50:00,63.2,30.9,30.08,NNW,343,0.0,0.0,30,0.00,,---,0.00,VWS V14.00,2013-08-03 08:50:00,
2013-08-03 01:55:00,63.4,31.0,30.08,NNW,342,0.0,0.0,30,0.00,,---,0.00,VWS V14.00,2013-08-03 08:55:00,
2013-08-03 02:00:00,62.7,32.0,30.08,NNW,342,0.0,0.0,32,0.00,,---,0.00,VWS V14.00,2013-08-03 09:00:00,
2013-08-03 02:05:00,62.0,31.4,30.08,NNW,343,0.0,0.0,32,0.00,,---,0.00,VWS V14.00,2013-08-03 09:05:00,
2013-08-03 02:10:00,61.2,31.5,30.08,NNW,343,0.0,0.0,32,0.00,,---,0.00,VWS V14.00,2013-08-03 09:10:00,
2013-08-03 02:15:00,60.5,31.6,30.08,NNW,343,0.0,0.0,34,0.00,,---,0.00,VWS V14.00,2013-08-03 09:15:00,
2013-08-03 02:20:00,60.3,31.5,30.08,NNW,342,0.0,0.0,34,0.00,,---,0.00,VWS V14.00,2013-08-03 09:20:00,
2013-08-03 02:25:00,60.3,31.5,30.08,NNW,343,0.0,0.0,34,0.00,,---,0.00,VWS V14.00,2013-08-03 09:25:00,
2013-08-03 02:30:00,60.3,31.5,30.08,NNW,343,0.0,0.0,34,0.00,,---,0.00,VWS V14.00,2013-08-03 09:30:00,
2013-08-03 02:35:00,60.4,31.6,30.08,NNW,342,0.0,0.0,34,0.00,,---,0.00,VWS V14.00,2013-08-03 09:35:00,
2013-08-03 02:40:00,60.6,31.7,30.08,NNW,342,0.0,0.0,34,0.00,,---,0.00,VWS V14.00,2013-08-03 09:40:00,
2013-08-03 02:45:00,60.6,31.7,30.08,NNW,343,0.0,0.0,34,0.00,,---,0.00,VWS V14.00,2013-08-03 09:45:00,
2013-08-03 02:50:00,60.0,31.2,30.08,NNW,343,0.0,0.0,34,0.00,,---,0.00,VWS V14.00,2013-08-03 09:50:00,
2013-08-03 02:55:00,60.1,31.3,30.08,NNW,342,0.0,0.0,34,0.00,,---,0.00,VWS V14.00,2013-08-03 09:55:00,
2013-08-03 03:00:00,59.6,30.9,30.08,NNW,342,0.0,0.0,34,0.00,,---,0.00,VWS V14.00,2013-08-03 10:00:00,
2013-08-03 03:05:00,59.0,30.3,30.08,NNW,343,0.0,0.0,34,0.00,,---,0.00,VWS V14.00,2013-08-03 10:05:00,
2013-08-03 03:10:00,57.8,28.5,30.08,NNW,342,0.0,0.0,32,0.00,,---,0.00,VWS V14.00,2013-08-03 10:10:00,
2013-08-03 03:15:00,56.5,28.9,30.08,NNW,342,0.0,0.0,34,0.00,,---,0.00,VWS V14.00,2013-08-03 10:15:00,
2013-08-03 03:20:00,56.4,28.8,30.08,NNW,343,0.0,0.0,34,0.00,,---,0.00,VWS V14.00,2013-08-03 10:20:00,
2013-08-03 03:25:00,55.7,27.4,30.08,NNW,343,0.0,0.0,34,0.00,,---,0.00,VWS V14.00,2013-08-03 10:25:00,
2013-08-03 03:30:00,54.8,27.3,30.08,NNW,343,0.0,0.0,34,0.00,,---,0.00,VWS V14.00,2013-08-03 10:30:00,
2013-08-03 03:35:00,54.8,28.0,30.08,NNW,342,0.0,0.0,36,0.00,,---,0.00,VWS V14.00,2013-08-03 10:35:00,
2013-08-03 03:40:00,54.8,28.0,30.08,NNW,343,0.0,0.0,36,0.00,,---,0.00,VWS V14.00,2013-08-03 10:40:00,
2013-08-03 03:45:00,54.7,28.0,30.08,NNW,343,0.0,0.0,36,0.00,,---,0.00,VWS V14.00,2013-08-03 10:45:00,
2013-08-03 03:50:00,54.4,27.7,30.08,NNW,343,0.0,0.0,36,0.00,,---,0.00,VWS V14.00,2013-08-03 10:50:00,
2013-08-03 03:55:00,54.3,28.3,30.08,NNW,342,0.0,0.0,36,0.00,,---,0.00,VWS V14.00,2013-08-03 10:55:00,
2013-08-03 04:00:00,54.2,28.2,30.08,NNW,343,0.0,0.0,36,0.00,,---,0.00,VWS V14.00,2013-08-03 11:00:00,
2013-08-03 04:05:00,54.0,28.0,30.08,NNW,343,0.0,0.0,36,0.00,,---,0.00,VWS V14.00,2013-08-03 11:05:00,
2013-08-03 04:10:00,53.8,27.8,30.08,NNW,342,0.0,0.0,36,0.00,,---,0.00,VWS V14.00,2013-08-03 11:10:00,
2013-08-03 04:15:00,54.4,27.7,30.08,NNW,343,0.0,0.0,36,0.00,,---,0.00,VWS V14.00,2013-08-03 11:15:00,
2013-08-03 04:25:00,54.0,28.0,30.08,NNW,343,0.0,0.0,36,0.00,,---,0.00,VWS V14.00,2013-08-03 11:25:00,
2013-08-03 04:30:00,53.9,27.9,30.08,NNW,342,0.0,0.0,36,0.00,,---,0.00,VWS V14.00,2013-08-03 11:30:00,
2013-08-03 04:35:00,53.2,27.3,30.08,NNW,343,0.0,0.0,36,0.00,,---,0.00,VWS V14.00,2013-08-03 11:35:00,
2013-08-03 04:40:00,52.7,27.5,30.08,NNW,343,0.0,0.0,38,0.00,,---,0.00,VWS V14.00,2013-08-03 11:40:00,
2013-08-03 04:45:00,53.0,27.8,30.08,NNW,342,0.0,0.0,38,0.00,,---,0.00,VWS V14.00,2013-08-03 11:45:00,
2013-08-03 04:50:00,54.1,28.1,30.08,NNW,342,0.0,0.0,36,0.00,,---,0.00,VWS V14.00,2013-08-03 11:50:00,
2013-08-03 04:55:00,55.2,29.1,30.08,NNW,343,0.0,0.0,36,0.00,,---,0.00,VWS V14.00,2013-08-03 11:55:00,
2013-08-03 05:00:00,56.0,29.1,30.08,NNW,343,0.0,0.0,36,0.00,,---,0.00,VWS V14.00,2013-08-03 12:00:00,
2013-08-03 05:05:00,55.3,27.8,30.08,NNW,343,0.0,0.0,34,0.00,,---,0.00,VWS V14.00,2013-08-03 12:05:00,
2013-08-03 05:10:00,54.5,27.8,30.08,NNW,342,0.0,0.0,36,0.00,,---,0.00,VWS V14.00,2013-08-03 12:10:00,
2013-08-03 05:15:00,54.9,28.8,30.08,NNW,343,0.0,0.0,36,0.00,,---,0.00,VWS V14.00,2013-08-03 12:15:00,
2013-08-03 05:20:00,55.4,28.6,30.08,NNW,342,0.0,0.0,36,0.00,,---,0.00,VWS V14.00,2013-08-03 12:20:00,
2013-08-03 05:25:00,55.7,28.8,30.08,NNW,342,0.0,0.0,36,0.00,,---,0.00,VWS V14.00,2013-08-03 12:25:00,
2013-08-03 05:30:00,55.0,28.2,30.08,NNW,343,0.0,0.0,36,0.00,,---,0.00,VWS V14.00,2013-08-03 12:30:00,
2013-08-03 05:35:00,54.5,29.1,30.08,NNW,343,0.0,0.0,38,0.00,,---,0.00,VWS V14.00,2013-08-03 12:35:00,
2013-08-03 05:40:00,54.7,28.6,30.08,NNW,343,0.0,0.0,36,0.00,,---,0.00,VWS V14.00,2013-08-03 12:40:00,
2013-08-03 05:45:00,54.8,29.4,30.08,NNW,342,0.0,0.0,38,0.00,,---,0.00,VWS V14.00,2013-08-03 12:45:00,
2013-08-03 05:55:00,55.6,30.1,30.09,NNW,343,0.0,0.0,38,0.00,,---,0.00,VWS V14.00,2013-08-03 12:55:00,
2013-08-03 06:00:00,56.0,29.1,30.09,NNW,342,0.0,0.0,36,0.00,,---,0.00,VWS V14.00,2013-08-03 13:00:00,
2013-08-03 06:05:00,55.4,29.2,30.09,NNW,342,0.0,0.0,36,0.00,,---,0.00,VWS V14.00,2013-08-03 13:05:00,
2013-08-03 06:10:00,54.9,30.1,30.09,NNW,343,0.0,0.0,38,0.00,,---,0.00,VWS V14.00,2013-08-03 13:10:00,
2013-08-03 06:15:00,55.7,30.2,30.09,NNW,343,0.0,0.0,38,0.00,,---,0.00,VWS V14.00,2013-08-03 13:15:00,
2013-08-03 06:20:00,54.8,28.7,30.09,NNW,343,0.0,0.0,36,0.00,,---,0.00,VWS V14.00,2013-08-03 13:20:00,
2013-08-03 06:25:00,54.0,29.3,30.09,NNW,343,0.0,0.0,38,0.00,,---,0.00,VWS V14.00,2013-08-03 13:25:00,
2013-08-03 06:30:00,53.7,29.0,30.09,NNW,343,0.0,0.0,38,0.00,,---,0.00,VWS V14.00,2013-08-03 13:30:00,
2013-08-03 06:35:00,53.6,29.0,30.09,NNW,342,0.0,0.0,38,0.00,,---,0.00,VWS V14.00,2013-08-03 13:35:00,
2013-08-03 06:40:00,53.8,28.5,30.10,NNW,343,0.0,0.0,38,0.00,,---,0.00,VWS V14.00,2013-08-03 13:40:00,
2013-08-03 06:50:00,54.6,29.2,30.09,NNW,346,0.0,0.0,38,0.00,,---,0.00,VWS V14.00,2013-08-03 13:50:00,
2013-08-03 07:00:00,55.9,29.7,30.10,NNW,346,0.0,0.0,36,0.00,,---,0.00,VWS V14.00,2013-08-03 14:00:00,
2013-08-03 07:10:00,57.8,30.0,30.10,NNW,346,0.0,0.0,34,0.00,,---,0.00,VWS V14.00,2013-08-03 14:10:00,
2013-08-03 07:15:00,59.0,30.3,30.10,NNW,346,0.0,0.0,34,0.00,,---,0.00,VWS V14.00,2013-08-03 14:15:00,
2013-08-03 07:20:00,59.8,30.3,30.10,NNW,345,0.0,0.0,32,0.00,,---,0.00,VWS V14.00,2013-08-03 14:20:00,
2013-08-03 07:25:00,60.7,30.3,30.10,NNW,346,0.0,0.0,32,0.00,,---,0.00,VWS V14.00,2013-08-03 14:25:00,
2013-08-03 07:30:00,61.3,30.8,30.10,NNW,346,0.0,0.0,32,0.00,,---,0.00,VWS V14.00,2013-08-03 14:30:00,
2013-08-03 07:35:00,61.9,30.6,30.11,NNW,345,0.0,0.0,30,0.00,,---,0.00,VWS V14.00,2013-08-03 14:35:00,
2013-08-03 07:40:00,62.0,32.2,30.11,NNW,345,0.0,0.0,32,0.00,,---,0.00,VWS V14.00,2013-08-03 14:40:00,
2013-08-03 07:45:00,61.7,32.0,30.11,NNW,346,0.0,0.0,32,0.00,,---,0.00,VWS V14.00,2013-08-03 14:45:00,
2013-08-03 07:50:00,61.5,31.8,30.11,NNW,346,0.0,0.0,32,0.00,,---,0.00,VWS V14.00,2013-08-03 14:50:00,
2013-08-03 07:55:00,61.6,31.9,30.11,NNW,345,0.0,0.0,32,0.00,,---,0.00,VWS V14.00,2013-08-03 14:55:00,
2013-08-03 08:00:00,61.7,32.0,30.11,NNW,346,0.0,0.0,32,0.00,,---,0.00,VWS V14.00,2013-08-03 15:00:00,
2013-08-03 08:05:00,61.9,32.1,30.11,NNW,346,0.0,0.0,32,0.00,,---,0.00,VWS V14.00,2013-08-03 15:05:00,
2013-08-03 08:10:00,62.2,32.4,30.11,NNW,345,0.0,0.0,32,0.00,,---,0.00,VWS V14.00,2013-08-03 15:10:00,
2013-08-03 08:15:00,62.4,31.8,30.11,NNW,345,0.0,0.0,32,0.00,,---,0.00,VWS V14.00,2013-08-03 15:15:00,
2013-08-03 08:20:00,62.7,32.0,30.10,NNW,346,0.0,0.0,32,0.00,,---,0.00,VWS V14.00,2013-08-03 15:20:00,
2013-08-03 08:25:00,62.8,32.1,30.11,NNW,346,0.0,0.0,32,0.00,,---,0.00,VWS V14.00,2013-08-03 15:25:00,
2013-08-03 08:30:00,63.0,32.3,30.10,NNW,346,0.0,0.0,32,0.00,,---,0.00,VWS V14.00,2013-08-03 15:30:00,
2013-08-03 08:35:00,63.4,32.7,30.10,NNW,345,0.0,0.0,32,0.00,,---,0.00,VWS V14.00,2013-08-03 15:35:00,
2013-08-03 08:40:00,63.9,32.3,30.11,NNW,346,0.0,0.0,30,0.00,,---,0.00,VWS V14.00,2013-08-03 15:40:00,
2013-08-03 08:45:00,64.6,32.9,30.11,NNW,345,0.0,0.0,30,0.00,,---,0.00,VWS V14.00,2013-08-03 15:45:00,
2013-08-03 08:55:00,65.3,33.5,30.11,NNW,346,0.0,0.0,30,0.00,,---,0.00,VWS V14.00,2013-08-03 15:55:00,
2013-08-03 09:00:00,65.5,33.7,30.11,NNW,346,0.0,0.0,30,0.00,,---,0.00,VWS V14.00,2013-08-03 16:00:00,
2013-08-03 09:05:00,66.0,33.3,30.10,NNW,346,0.0,0.0,30,0.00,,---,0.00,VWS V14.00,2013-08-03 16:05:00,
2013-08-03 09:10:00,66.5,33.7,30.10,NNW,346,0.0,0.0,30,0.00,,---,0.00,VWS V14.00,2013-08-03 16:10:00,
2013-08-03 09:15:00,67.2,34.3,30.10,NNW,346,0.0,0.0,30,0.00,,---,0.00,VWS V14.00,2013-08-03 16:15:00,
2013-08-03 09:25:00,67.7,33.9,30.10,NNW,345,0.0,0.0,28,0.00,,---,0.00,VWS V14.00,2013-08-03 16:25:00,
2013-08-03 09:30:00,68.1,35.1,30.10,NNW,346,0.0,0.0,30,0.00,,---,0.00,VWS V14.00,2013-08-03 16:30:00,
2013-08-03 09:35:00,68.5,35.5,30.10,NNW,346,0.0,0.0,30,0.00,,---,0.00,VWS V14.00,2013-08-03 16:35:00,
2013-08-03 09:40:00,69.0,35.9,30.10,NNW,346,0.0,0.0,30,0.00,,---,0.00,VWS V14.00,2013-08-03 16:40:00,
2013-08-03 09:45:00,69.2,35.2,30.10,NNW,346,5.0,8.0,28,0.00,,---,0.00,VWS V14.00,2013-08-03 16:45:00,
2013-08-03 09:55:00,69.3,35.3,30.10,NNW,346,0.0,8.0,28,0.00,,---,0.00,VWS V14.00,2013-08-03 16:55:00,
2013-08-03 10:00:00,69.8,33.9,30.10,NNW,345,6.0,8.0,26,0.00,,---,0.00,VWS V14.00,2013-08-03 17:00:00,
2013-08-03 10:05:00,70.2,35.2,30.10,NNW,346,5.0,6.0,28,0.00,,---,0.00,VWS V14.00,2013-08-03 17:05:00,
2013-08-03 10:10:00,70.6,34.6,30.10,NNW,346,2.0,9.0,26,0.00,,---,0.00,VWS V14.00,2013-08-03 17:10:00,
2013-08-03 10:20:00,71.7,33.5,30.10,NNW,346,0.0,8.0,24,0.00,,---,0.00,VWS V14.00,2013-08-03 17:20:00,
2013-08-03 10:25:00,72.1,33.9,30.10,NNW,345,0.0,0.0,24,0.00,,---,0.00,VWS V14.00,2013-08-03 17:25:00,
2013-08-03 10:30:00,72.3,34.0,30.10,NNW,346,0.0,10.0,24,0.00,,---,0.00,VWS V14.00,2013-08-03 17:30:00,
2013-08-03 10:40:00,72.7,33.3,30.09,NNW,346,0.0,10.0,24,0.00,,---,0.00,VWS V14.00,2013-08-03 17:40:00,
2013-08-03 10:45:00,73.1,35.7,30.09,NNW,345,5.0,6.0,26,0.00,,---,0.00,VWS V14.00,2013-08-03 17:45:00,
2013-08-03 10:50:00,73.4,35.0,30.09,NNW,346,0.0,7.0,24,0.00,,---,0.00,VWS V14.00,2013-08-03 17:50:00,
2013-08-03 10:55:00,73.9,34.3,30.09,NNW,345,9.0,10.0,24,0.00,,---,0.00,VWS V14.00,2013-08-03 17:55:00,
2013-08-03 11:00:00,74.2,34.6,30.09,NNW,345,4.0,9.0,24,0.00,,---,0.00,VWS V14.00,2013-08-03 18:00:00,
2013-08-03 11:05:00,74.2,33.5,30.09,NNW,346,0.0,7.0,22,0.00,,---,0.00,VWS V14.00,2013-08-03 18:05:00,
2013-08-03 11:10:00,74.5,33.8,30.09,NNW,345,0.0,0.0,22,0.00,,---,0.00,VWS V14.00,2013-08-03 18:10:00,
2013-08-03 11:15:00,74.9,34.1,30.08,NNW,345,2.0,7.0,22,0.00,,---,0.00,VWS V14.00,2013-08-03 18:15:00,
2013-08-03 11:20:00,75.2,33.2,30.08,NNW,346,0.0,7.0,22,0.00,,---,0.00,VWS V14.00,2013-08-03 18:20:00,
2013-08-03 11:30:00,76.2,32.8,30.08,NNW,346,0.0,0.0,20,0.00,,---,0.00,VWS V14.00,2013-08-03 18:30:00,
2013-08-03 11:35:00,77.1,33.6,30.08,NNW,345,0.0,0.0,20,0.00,,---,0.00,VWS V14.00,2013-08-03 18:35:00,
2013-08-03 11:40:00,77.6,35.2,30.08,NNW,346,0.0,7.0,22,0.00,,---,0.00,VWS V14.00,2013-08-03 18:40:00,
2013-08-03 11:45:00,78.0,34.3,30.08,NW,318,9.0,12.0,20,0.00,,---,0.00,VWS V14.00,2013-08-03 18:45:00,
2013-08-03 11:55:00,77.8,34.2,30.07,NW,308,0.0,10.0,20,0.00,,---,0.00,VWS V14.00,2013-08-03 18:55:00,
2013-08-03 12:00:00,78.7,33.7,30.08,NW,308,0.0,6.0,20,0.00,,---,0.00,VWS V14.00,2013-08-03 19:00:00,
2013-08-03 12:10:00,78.8,33.8,30.07,NW,309,0.0,8.0,20,0.00,,---,0.00,VWS V14.00,2013-08-03 19:10:00,
2013-08-03 12:15:00,79.1,34.0,30.07,NW,307,2.0,9.0,20,0.00,,---,0.00,VWS V14.00,2013-08-03 19:15:00,
2013-08-03 12:20:00,78.9,32.5,30.07,WNW,302,0.0,18.0,18,0.00,,---,0.00,VWS V14.00,2013-08-03 19:20:00,
2013-08-03 12:25:00,79.3,34.2,30.07,WNW,302,6.0,8.0,20,0.00,,---,0.00,VWS V14.00,2013-08-03 19:25:00,
2013-08-03 12:35:00,79.7,31.8,30.06,WNW,302,0.0,7.0,18,0.00,,---,0.00,VWS V14.00,2013-08-03 19:35:00,
2013-08-03 12:40:00,80.1,32.1,30.06,North,360,0.0,9.0,18,0.00,,---,0.00,VWS V14.00,2013-08-03 19:40:00,
2013-08-03 12:45:00,80.9,34.2,30.06,NW,305,3.0,12.0,18,0.00,,---,0.00,VWS V14.00,2013-08-03 19:45:00,
2013-08-03 12:55:00,81.9,33.6,30.06,WNW,294,8.0,16.0,18,0.00,,---,0.00,VWS V14.00,2013-08-03 19:55:00,
2013-08-03 13:00:00,82.0,32.2,30.06,WNW,294,8.0,11.0,16,0.00,,---,0.00,VWS V14.00,2013-08-03 20:00:00,
2013-08-03 13:10:00,81.2,31.5,30.06,West,281,11.0,15.0,16,0.00,,---,0.00,VWS V14.00,2013-08-03 20:10:00,
2013-08-03 13:20:00,81.8,32.0,30.06,WNW,283,10.0,15.0,16,0.00,,---,0.00,VWS V14.00,2013-08-03 20:20:00,
2013-08-03 13:25:00,82.1,30.7,30.06,West,273,7.0,13.0,16,0.00,,---,0.00,VWS V14.00,2013-08-03 20:25:00,
2013-08-03 13:35:00,82.5,31.0,30.06,West,272,2.0,13.0,16,0.00,,---,0.00,VWS V14.00,2013-08-03 20:35:00,
2013-08-03 13:40:00,82.2,30.8,30.06,West,272,3.0,9.0,16,0.00,,---,0.00,VWS V14.00,2013-08-03 20:40:00,
2013-08-03 13:45:00,82.3,30.9,30.05,West,272,6.0,9.0,16,0.00,,---,0.00,VWS V14.00,2013-08-03 20:45:00,
2013-08-03 13:50:00,82.4,29.3,30.05,West,269,5.0,18.0,14,0.00,,---,0.00,VWS V14.00,2013-08-03 20:50:00,
2013-08-03 13:55:00,82.6,31.1,30.06,West,273,11.0,14.0,16,0.00,,---,0.00,VWS V14.00,2013-08-03 20:55:00,
2013-08-03 14:00:00,82.8,29.6,30.05,West,272,4.0,13.0,14,0.00,,---,0.00,VWS V14.00,2013-08-03 21:00:00,
2013-08-03 14:10:00,82.3,29.2,30.05,WNW,300,3.0,15.0,14,0.00,,---,0.00,VWS V14.00,2013-08-03 21:10:00,
2013-08-03 14:15:00,83.0,29.8,30.05,NW,305,12.0,12.0,14,0.00,,---,0.00,VWS V14.00,2013-08-03 21:15:00,
2013-08-03 14:20:00,83.3,31.7,30.05,NW,305,7.0,13.0,16,0.00,,---,0.00,VWS V14.00,2013-08-03 21:20:00,
2013-08-03 14:30:00,83.3,30.0,30.05,NW,306,3.0,12.0,14,0.00,,---,0.00,VWS V14.00,2013-08-03 21:30:00,
2013-08-03 14:40:00,84.2,32.4,30.05,WNW,294,8.0,16.0,16,0.00,,---,0.00,VWS V14.00,2013-08-03 21:40:00,
2013-08-03 14:45:00,83.3,33.2,30.05,NW,305,13.0,20.0,16,0.00,,---,0.00,VWS V14.00,2013-08-03 21:45:00,
2013-08-03 14:55:00,83.8,32.1,30.05,NW,311,7.0,9.0,16,0.00,,---,0.00,VWS V14.00,2013-08-03 21:55:00,
2013-08-03 15:00:00,84.1,33.9,30.04,NW,307,5.0,15.0,16,0.00,,---,0.00,VWS V14.00,2013-08-03 22:00:00,
2013-08-03 15:05:00,83.4,34.8,30.04,WNW,300,14.0,18.0,18,0.00,,---,0.00,VWS V14.00,2013-08-03 22:05:00,
2013-08-03 15:10:00,83.6,33.5,30.04,WNW,288,8.0,18.0,16,0.00,,---,0.00,VWS V14.00,2013-08-03 22:10:00,
2013-08-03 15:20:00,83.8,33.6,30.04,WNW,294,13.0,14.0,16,0.00,,---,0.00,VWS V14.00,2013-08-03 22:20:00,
2013-08-03 15:30:00,84.1,33.9,30.04,NW,309,14.0,16.0,16,0.00,,---,0.00,VWS V14.00,2013-08-03 22:30:00,
2013-08-03 15:40:00,84.7,34.4,30.03,NW,315,5.0,11.0,16,0.00,,---,0.00,VWS V14.00,2013-08-03 22:40:00,
2013-08-03 15:50:00,85.0,34.6,30.03,NW,308,6.0,14.0,16,0.00,,---,0.00,VWS V14.00,2013-08-03 22:50:00,
2013-08-03 15:55:00,85.0,36.1,30.03,NW,304,9.0,16.0,18,0.00,,---,0.00,VWS V14.00,2013-08-03 22:55:00,
2013-08-03 16:00:00,84.7,35.8,30.03,NW,309,9.0,16.0,18,0.00,,---,0.00,VWS V14.00,2013-08-03 23:00:00,
2013-08-03 16:05:00,84.3,35.5,30.03,WNW,300,13.0,21.0,18,0.00,,---,0.00,VWS V14.00,2013-08-03 23:05:00,
2013-08-03 16:10:00,84.6,35.8,30.04,WNW,298,5.0,19.0,18,0.00,,---,0.00,VWS V14.00,2013-08-03 23:10:00,
2013-08-03 16:15:00,84.2,36.8,30.03,West,276,13.0,19.0,18,0.00,,---,0.00,VWS V14.00,2013-08-03 23:15:00,
2013-08-03 16:20:00,84.2,35.4,30.04,West,275,8.0,16.0,18,0.00,,---,0.00,VWS V14.00,2013-08-03 23:20:00,
2013-08-03 16:25:00,84.1,36.8,30.03,West,272,13.0,18.0,18,0.00,,---,0.00,VWS V14.00,2013-08-03 23:25:00,
2013-08-03 16:30:00,84.2,36.8,30.04,WNW,283,14.0,19.0,18,0.00,,---,0.00,VWS V14.00,2013-08-03 23:30:00,
2013-08-03 16:35:00,84.1,36.8,30.03,WNW,283,8.0,14.0,18,0.00,,---,0.00,VWS V14.00,2013-08-03 23:35:00,
2013-08-03 16:45:00,84.3,36.9,30.03,WNW,284,8.0,14.0,18,0.00,,---,0.00,VWS V14.00,2013-08-03 23:45:00,
2013-08-03 16:50:00,84.6,38.5,30.03,WNW,287,12.0,15.0,20,0.00,,---,0.00,VWS V14.00,2013-08-03 23:50:00,
2013-08-03 16:55:00,84.2,38.2,30.03,WNW,294,11.0,16.0,20,0.00,,---,0.00,VWS V14.00,2013-08-03 23:55:00,
2013-08-03 17:00:00,83.8,37.8,30.03,NW,309,15.0,20.0,20,0.00,,---,0.00,VWS V14.00,2013-08-04 00:00:00,
2013-08-03 17:05:00,84.0,38.0,30.03,WNW,289,12.0,18.0,20,0.00,,---,0.00,VWS V14.00,2013-08-04 00:05:00,
2013-08-03 17:10:00,83.8,37.8,30.03,WNW,286,7.0,19.0,20,0.00,,---,0.00,VWS V14.00,2013-08-04 00:10:00,
2013-08-03 17:15:00,83.6,37.7,30.03,WNW,302,10.0,18.0,20,0.00,,---,0.00,VWS V14.00,2013-08-04 00:15:00,
2013-08-03 17:20:00,83.4,37.5,30.03,WNW,303,6.0,14.0,20,0.00,,---,0.00,VWS V14.00,2013-08-04 00:20:00,
2013-08-03 17:25:00,83.5,37.6,30.03,WNW,303,10.0,14.0,20,0.00,,---,0.00,VWS V14.00,2013-08-04 00:25:00,
2013-08-03 17:30:00,83.2,37.4,30.03,WNW,303,5.0,16.0,20,0.00,,---,0.00,VWS V14.00,2013-08-04 00:30:00,
2013-08-03 17:35:00,82.8,38.3,30.03,NW,308,10.0,16.0,20,0.00,,---,0.00,VWS V14.00,2013-08-04 00:35:00,
2013-08-03 17:40:00,82.9,37.1,30.03,NW,315,11.0,14.0,20,0.00,,---,0.00,VWS V14.00,2013-08-04 00:40:00,
2013-08-03 17:45:00,83.2,38.6,30.03,WNW,302,10.0,16.0,20,0.00,,---,0.00,VWS V14.00,2013-08-04 00:45:00,
2013-08-03 17:50:00,83.1,38.5,30.02,WNW,287,16.0,19.0,20,0.00,,---,0.00,VWS V14.00,2013-08-04 00:50:00,
2013-08-03 17:55:00,82.8,38.3,30.02,WNW,290,10.0,19.0,20,0.00,,---,0.00,VWS V14.00,2013-08-04 00:55:00,
2013-08-03 18:00:00,82.7,38.2,30.03,WNW,292,7.0,15.0,20,0.00,,---,0.00,VWS V14.00,2013-08-04 01:00:00,
2013-08-03 18:05:00,82.6,38.1,30.03,WNW,293,7.0,16.0,20,0.00,,---,0.00,VWS V14.00,2013-08-04 01:05:00,
2013-08-03 18:10:00,82.6,38.1,30.02,WNW,300,10.0,20.0,20,0.00,,---,0.00,VWS V14.00,2013-08-04 01:10:00,
2013-08-03 18:15:00,82.3,39.1,30.03,NW,306,10.0,18.0,22,0.00,,---,0.00,VWS V14.00,2013-08-04 01:15:00,
2013-08-03 18:20:00,82.4,39.2,30.03,WNW,290,14.0,15.0,22,0.00,,---,0.00,VWS V14.00,2013-08-04 01:20:00,
2013-08-03 18:25:00,82.1,38.9,30.03,WNW,288,10.0,14.0,22,0.00,,---,0.00,VWS V14.00,2013-08-04 01:25:00,
2013-08-03 18:30:00,81.9,38.8,30.03,WNW,283,8.0,15.0,22,0.00,,---,0.00,VWS V14.00,2013-08-04 01:30:00,
2013-08-03 18:35:00,81.6,39.7,30.03,West,277,14.0,16.0,22,0.00,,---,0.00,VWS V14.00,2013-08-04 01:35:00,
2013-08-03 18:40:00,81.3,39.4,30.03,West,275,9.0,16.0,22,0.00,,---,0.00,VWS V14.00,2013-08-04 01:40:00,
2013-08-03 18:45:00,81.5,40.7,30.03,West,275,9.0,13.0,24,0.00,,---,0.00,VWS V14.00,2013-08-04 01:45:00,
2013-08-03 18:50:00,80.8,40.1,30.03,NW,312,13.0,19.0,24,0.00,,---,0.00,VWS V14.00,2013-08-04 01:50:00,
2013-08-03 18:55:00,80.2,40.7,30.03,WNW,303,10.0,21.0,24,0.00,,---,0.00,VWS V14.00,2013-08-04 01:55:00,
2013-08-03 19:00:00,79.6,41.2,30.03,WNW,295,19.0,21.0,26,0.00,,---,0.00,VWS V14.00,2013-08-04 02:00:00,
2013-08-03 19:05:00,79.3,41.0,30.03,WNW,290,10.0,18.0,26,0.00,,---,0.00,VWS V14.00,2013-08-04 02:05:00,
2013-08-03 19:10:00,79.0,40.7,30.03,WNW,294,11.0,18.0,26,0.00,,---,0.00,VWS V14.00,2013-08-04 02:10:00,
2013-08-03 19:15:00,78.7,41.5,30.03,WNW,296,12.0,14.0,26,0.00,,---,0.00,VWS V14.00,2013-08-04 02:15:00,
2013-08-03 19:20:00,78.7,41.5,30.03,WNW,295,9.0,14.0,26,0.00,,---,0.00,VWS V14.00,2013-08-04 02:20:00,
2013-08-03 19:25:00,78.0,41.8,30.04,WNW,298,11.0,14.0,28,0.00,,---,0.00,VWS V14.00,2013-08-04 02:25:00,
2013-08-03 19:30:00,77.5,41.4,30.04,WNW,303,11.0,14.0,28,0.00,,---,0.00,VWS V14.00,2013-08-04 02:30:00,
2013-08-03 19:35:00,76.9,41.8,30.04,NW,304,14.0,15.0,28,0.00,,---,0.00,VWS V14.00,2013-08-04 02:35:00,
2013-08-03 19:40:00,76.4,41.4,30.04,NW,306,8.0,16.0,28,0.00,,---,0.00,VWS V14.00,2013-08-04 02:40:00,
2013-08-03 19:45:00,76.1,41.1,30.04,NW,306,11.0,14.0,28,0.00,,---,0.00,VWS V14.00,2013-08-04 02:45:00,
2013-08-03 19:50:00,75.7,40.8,30.04,NW,305,10.0,13.0,28,0.00,,---,0.00,VWS V14.00,2013-08-04 02:50:00,
2013-08-03 19:55:00,75.2,40.3,30.04,NW,304,8.0,11.0,28,0.00,,---,0.00,VWS V14.00,2013-08-04 02:55:00,
2013-08-03 20:00:00,74.9,40.1,30.04,NW,305,8.0,9.0,28,0.00,,---,0.00,VWS V14.00,2013-08-04 03:00:00,
2013-08-03 20:05:00,74.5,39.7,30.04,NW,305,9.0,12.0,28,0.00,,---,0.00,VWS V14.00,2013-08-04 03:05:00,
2013-08-03 20:15:00,73.5,40.6,30.05,NW,304,5.0,10.0,30,0.00,,---,0.00,VWS V14.00,2013-08-04 03:15:00,
2013-08-03 20:20:00,73.0,40.2,30.05,NW,305,4.0,8.0,30,0.00,,---,0.00,VWS V14.00,2013-08-04 03:20:00,
2013-08-03 20:25:00,72.4,40.5,30.05,NW,305,0.0,7.0,32,0.00,,---,0.00,VWS V14.00,2013-08-04 03:25:00,
2013-08-03 20:30:00,72.0,40.2,30.06,NW,305,0.0,0.0,32,0.00,,---,0.00,VWS V14.00,2013-08-04 03:30:00,
2013-08-03 20:40:00,71.3,40.3,30.06,NW,305,0.0,0.0,32,0.00,,---,0.00,VWS V14.00,2013-08-04 03:40:00,
2013-08-03 20:45:00,70.7,39.0,30.06,NW,305,0.0,0.0,32,0.00,,---,0.00,VWS V14.00,2013-08-04 03:45:00,
2013-08-03 20:55:00,69.8,39.0,30.06,NW,305,0.0,0.0,32,0.00,,---,0.00,VWS V14.00,2013-08-04 03:55:00,
2013-08-03 21:00:00,69.8,39.0,30.06,NW,305,0.0,0.0,32,0.00,,---,0.00,VWS V14.00,2013-08-04 04:00:00,
2013-08-03 21:05:00,70.2,39.4,30.07,NW,305,0.0,0.0,32,0.00,,---,0.00,VWS V14.00,2013-08-04 04:05:00,
2013-08-03 21:10:00,70.5,38.8,30.07,NW,304,0.0,0.0,32,0.00,,---,0.00,VWS V14.00,2013-08-04 04:10:00,
2013-08-03 21:15:00,70.3,38.7,30.07,NW,305,0.0,0.0,32,0.00,,---,0.00,VWS V14.00,2013-08-04 04:15:00,
2013-08-03 21:20:00,70.2,38.6,30.07,NW,305,0.0,0.0,32,0.00,,---,0.00,VWS V14.00,2013-08-04 04:20:00,
2013-08-03 21:25:00,70.4,38.8,30.07,NW,304,0.0,0.0,32,0.00,,---,0.00,VWS V14.00,2013-08-04 04:25:00,
2013-08-03 21:30:00,70.3,38.7,30.07,NW,304,0.0,0.0,32,0.00,,---,0.00,VWS V14.00,2013-08-04 04:30:00,
2013-08-03 21:40:00,70.5,38.8,30.08,NW,305,0.0,0.0,32,0.00,,---,0.00,VWS V14.00,2013-08-04 04:40:00,
2013-08-03 21:45:00,70.8,39.1,30.08,NW,305,0.0,0.0,32,0.00,,---,0.00,VWS V14.00,2013-08-04 04:45:00,
2013-08-03 21:50:00,70.9,39.2,30.08,NW,304,0.0,0.0,32,0.00,,---,0.00,VWS V14.00,2013-08-04 04:50:00,
2013-08-03 21:55:00,70.6,38.9,30.08,NW,305,0.0,0.0,32,0.00,,---,0.00,VWS V14.00,2013-08-04 04:55:00,
2013-08-03 22:00:00,70.6,38.1,30.08,NW,304,0.0,0.0,30,0.00,,---,0.00,VWS V14.00,2013-08-04 05:00:00,
2013-08-03 22:05:00,70.6,37.3,30.08,NW,305,0.0,0.0,30,0.00,,---,0.00,VWS V14.00,2013-08-04 05:05:00,
2013-08-03 22:10:00,70.3,36.1,30.08,NW,304,0.0,0.0,28,0.00,,---,0.00,VWS V14.00,2013-08-04 05:10:00,
2013-08-03 22:15:00,69.8,36.6,30.08,NW,305,0.0,0.0,30,0.00,,---,0.00,VWS V14.00,2013-08-04 05:15:00,
2013-08-03 22:20:00,69.7,36.5,30.08,NW,305,0.0,0.0,30,0.00,,---,0.00,VWS V14.00,2013-08-04 05:20:00,
2013-08-03 22:25:00,68.3,36.1,30.08,NW,304,0.0,0.0,30,0.00,,---,0.00,VWS V14.00,2013-08-04 05:25:00,
2013-08-03 22:30:00,68.1,35.9,30.08,NW,305,0.0,0.0,30,0.00,,---,0.00,VWS V14.00,2013-08-04 05:30:00,
2013-08-03 22:35:00,68.7,35.6,30.08,NW,305,0.0,0.0,30,0.00,,---,0.00,VWS V14.00,2013-08-04 05:35:00,
2013-08-03 22:40:00,68.6,36.4,30.08,NW,305,0.0,0.0,30,0.00,,---,0.00,VWS V14.00,2013-08-04 05:40:00,
2013-08-03 22:45:00,68.2,36.0,30.08,NW,304,0.0,0.0,30,0.00,,---,0.00,VWS V14.00,2013-08-04 05:45:00,
2013-08-03 22:50:00,68.2,36.0,30.08,NW,305,0.0,0.0,30,0.00,,---,0.00,VWS V14.00,2013-08-04 05:50:00,
2013-08-03 22:55:00,67.5,36.2,30.08,NW,305,0.0,0.0,32,0.00,,---,0.00,VWS V14.00,2013-08-04 05:55:00,
2013-08-03 23:00:00,66.0,35.7,30.08,NW,304,0.0,0.0,32,0.00,,---,0.00,VWS V14.00,2013-08-04 06:00:00,
2013-08-03 23:05:00,65.8,36.3,30.08,NW,305,0.0,0.0,34,0.00,,---,0.00,VWS V14.00,2013-08-04 06:05:00,
2013-08-03 23:10:00,66.0,36.5,30.08,NW,305,0.0,0.0,34,0.00,,---,0.00,VWS V14.00,2013-08-04 06:10:00,
2013-08-03 23:15:00,65.9,35.6,30.08,NW,305,0.0,0.0,32,0.00,,---,0.00,VWS V14.00,2013-08-04 06:15:00,
2013-08-03 23:20:00,66.2,35.9,30.09,NW,305,0.0,0.0,32,0.00,,---,0.00,VWS V14.00,2013-08-04 06:20:00,
2013-08-03 23:30:00,65.7,36.2,30.09,NW,305,0.0,0.0,34,0.00,,---,0.00,VWS V14.00,2013-08-04 06:30:00,
2013-08-03 23:35:00,65.7,36.2,30.09,NW,304,0.0,0.0,34,0.00,,---,0.00,VWS V14.00,2013-08-04 06:35:00,
2013-08-03 23:40:00,65.8,36.3,30.09,NW,304,0.0,0.0,34,0.00,,---,0.00,VWS V14.00,2013-08-04 06:40:00,
2013-08-03 23:45:00,66.2,35.9,30.09,NW,305,0.0,0.0,32,0.00,,---,0.00,VWS V14.00,2013-08-04 06:45:00,
2013-08-03 23:55:00,63.4,34.9,30.09,NW,305,0.0,0.0,34,0.00,,---,0.00,VWS V14.00,2013-08-04 06:55:00,